GFSNW_sfc_rhum_081.txt.gz
RH
74 73 72 75 74 79 89 97 99 98 93 99 99 97 81 72 82 78 78 74 83 84 88 89 94 98 95 84 89 88 84 79 96 90 79 81 87 75 60 72 74 75 68 56
77 75 74 72 72 82 99 99 98 98 97 100 99 80 84 73 72 77 78 83 73 80 88 91 92 91 82 84 84 89 78 84 91 79 68 71 81 75 72 69 71 79 69 60
77 74 76 81 76 78 96 98 99 99 98 94 86 87 76 80 69 66 64 79 80 83 88 85 90 88 84 82 83 72 66 84 75 82 75 80 80 77 70 65 79 72 64 69
81 83 78 73 73 78 95 98 99 97 100 98 94 93 78 78 80 68 66 71 78 80 90 90 90 88 80 75 76 77 72 89 88 78 74 80 80 80 78 79 69 66 62 68
88 90 87 79 76 81 96 98 98 93 92 84 94 87 77 78 87 77 75 76 81 78 80 79 86 86 85 91 78 83 78 95 81 84 68 65 78 78 82 75 70 70 65 63
84 86 88 84 82 88 97 98 87 80 86 94 89 83 75 76 78 82 83 78 79 83 83 81 82 82 86 87 87 84 80 86 89 88 74 66 70 71 73 79 80 73 69 68
90 89 90 85 85 84 96 97 89 88 92 92 87 77 77 78 82 84 84 80 78 82 77 74 68 69 73 73 82 80 82 86 87 90 74 81 60 65 66 70 78 83 82 76
86 86 87 86 77 74 94 90 80 94 81 94 81 83 85 78 86 88 89 87 86 81 74 77 77 80 75 77 76 81 77 84 93 90 92 67 69 69 77 76 74 80 75 67
87 87 79 72 68 67 82 91 93 88 93 88 86 87 80 90 92 89 87 82 84 80 81 75 86 88 86 87 82 69 70 77 82 86 90 83 66 70 71 70 68 73 68 67
86 81 78 76 68 64 77 87 90 86 98 90 90 90 90 88 90 94 91 87 82 80 87 80 85 90 85 85 87 89 87 86 89 82 93 78 67 67 67 78 63 72 69 72
90 87 82 77 72 66 76 85 88 86 97 92 84 85 90 87 89 88 85 83 81 89 85 83 89 87 88 88 84 87 83 88 90 86 91 88 81 76 72 68 82 76 78 80
86 86 83 74 74 66 68 78 78 77 90 90 76 76 85 88 86 91 91 81 87 90 92 93 94 84 91 86 85 86 86 78 82 78 75 74 85 84 83 78 78 81 80 85
81 77 78 73 68 65 67 84 91 83 89 89 82 80 72 74 82 82 86 92 87 90 90 93 91 81 85 88 89 87 84 85 86 80 81 83 86 88 85 84 85 86 86 86
79 78 78 73 69 67 66 78 89 81 85 92 87 72 82 72 80 79 83 85 89 90 93 93 91 83 91 91 84 87 81 86 86 86 82 87 86 85 84 86 83 87 87 88
78 81 72 70 72 72 82 92 94 81 74 92 91 81 80 82 78 78 80 82 86 92 93 96 93 96 91 93 92 94 90 85 87 83 78 80 79 86 84 80 75 81 88 83
81 83 76 73 70 65 71 76 83 84 82 90 93 87 86 84 78 81 83 86 90 93 92 95 95 87 92 92 92 76 82 81 77 76 85 79 89 88 85 76 77 81 86 84
82 83 75 70 69 89 78 77 76 76 78 90 95 95 82 87 84 89 86 88 93 89 93 88 91 92 94 93 90 68 80 82 86 86 85 86 88 86 86 78 79 76 79 78
82 76 73 73 72 73 78 87 75 74 84 91 96 96 91 84 84 82 93 86 86 92 94 90 84 85 89 90 78 79 84 83 76 75 76 65 82 77 78 74 74 72 70 71
82 76 69 78 80 77 80 76 73 86 73 91 96 93 93 87 94 93 87 88 80 91 90 90 83 84 88 69 70 80 87 76 69 72 76 80 76 69 69 73 71 76 73 76
75 76 81 87 88 83 74 77 78 86 95 95 95 95 98 91 95 95 92 89 95 94 91 90 93 91 73 77 76 75 83 70 71 79 64 72 80 71 68 68 74 80 82 83
82 85 93 91 82 82 79 87 77 83 76 97 98 96 96 89 93 94 89 95 97 97 92 93 96 95 86 82 81 82 81 76 67 56 58 72 69 84 77 75 75 79 83 87
83 85 86 83 82 87 68 86 82 85 67 98 97 94 91 96 91 95 93 93 94 92 95 96 98 86 83 84 78 77 70 65 63 71 67 70 68 78 83 87 87 86 86 87
78 81 80 84 84 64 74 66 77 94 94 98 99 98 94 95 88 93 94 93 94 93 96 96 90 82 81 84 84 69 69 68 71 69 70 72 76 75 80 81 76 79 85 82
94 92 94 84 86 85 82 79 90 90 96 97 97 98 94 89 93 87 91 84 81 99 100 86 92 82 80 87 75 69 74 76 70 85 89 86 84 82 76 75 78 82 83 75
99 96 86 87 86 98 99 98 98 95 88 89 93 96 85 98 96 88 85 94 100 89 75 87 92 90 89 85 78 76 76 87 90 91 92 90 89 88 82 76 81 85 84 82
98 97 84 83 95 96 98 100 99 97 84 90 85 93 93 94 94 98 94 84 75 74 94 94 93 95 86 83 74 70 74 77 82 91 92 93 92 91 90 91 89 87 86 89
98 96 88 94 94 94 97 92 89 88 86 86 88 74 66 92 95 90 90 81 81 92 96 98 90 87 76 76 68 67 71 80 86 92 94 95 94 96 97 97 92 95 92 94

GFSNW_sfc_rhum_084.txt.gz
RH
73 74 70 72 74 83 86 94 99 99 89 99 98 97 77 74 72 67 60 58 59 55 63 65 68 76 76 62 66 61 55 58 82 68 53 55 66 58 47 50 55 48 39 44
81 82 78 75 78 77 86 98 99 95 96 99 99 71 69 82 72 61 62 61 54 60 66 68 67 71 60 62 64 65 52 60 81 69 55 53 57 53 48 46 48 58 45 47
87 85 82 82 72 76 85 95 100 97 96 91 69 78 95 90 61 54 56 63 57 60 61 59 67 64 64 61 62 69 52 56 64 58 69 64 62 57 51 46 63 40 45 52
84 84 85 72 71 79 83 94 98 89 100 86 64 76 91 68 69 52 49 56 57 57 59 60 63 62 55 57 63 56 50 80 74 57 56 62 63 61 54 63 49 50 46 44
84 87 84 78 76 80 86 87 85 87 78 72 61 68 82 67 70 64 56 59 60 51 54 52 58 57 57 64 53 58 55 85 65 82 48 53 62 58 59 56 52 46 43 49
84 84 82 80 81 83 88 88 72 52 77 71 59 68 74 67 63 66 64 57 55 60 64 57 58 55 58 59 60 58 57 69 82 74 53 49 51 49 55 60 58 52 46 52
85 84 83 84 83 80 85 82 59 51 69 60 65 70 70 72 70 65 66 60 56 60 52 52 45 45 47 48 54 52 56 63 70 78 54 68 48 44 51 51 59 58 60 59
85 85 79 73 70 69 80 70 56 56 64 63 66 70 68 65 64 72 74 69 64 56 51 52 55 52 54 54 53 52 50 54 70 71 57 50 52 52 55 55 56 59 58 55
82 82 79 72 67 64 61 70 70 57 55 69 76 72 66 64 66 65 71 62 63 57 50 48 62 57 61 62 58 51 52 50 53 59 66 51 49 51 51 53 46 55 54 53
83 83 81 71 70 66 62 69 73 59 68 74 74 68 70 65 66 67 69 66 60 57 53 54 54 59 61 54 56 63 59 56 64 58 63 52 45 47 50 55 45 53 50 49
89 88 84 80 73 64 61 66 69 62 70 75 75 74 70 68 65 57 67 63 61 66 61 58 59 55 58 59 57 59 58 57 54 58 63 54 53 56 52 48 54 52 53 54
83 84 85 80 76 66 60 59 61 59 66 72 64 64 64 69 70 69 69 62 67 63 66 63 57 53 59 59 47 61 58 51 49 51 45 51 55 57 56 55 52 57 56 61
82 77 79 80 70 66 60 63 66 62 65 65 64 66 61 61 64 64 67 68 70 71 67 61 62 61 52 51 52 57 58 58 55 57 55 54 55 60 59 58 58 61 62 63
78 78 80 78 73 69 62 65 73 61 62 70 66 58 62 59 63 68 66 69 70 69 72 66 60 58 63 55 58 57 52 63 60 57 55 58 57 57 56 62 63 63 62 61
80 79 74 73 73 70 73 74 74 68 64 71 68 64 60 63 61 66 67 67 66 65 70 76 64 66 66 62 65 63 58 54 54 45 53 52 54 56 60 63 57 55 56 56
84 83 75 72 70 66 60 66 70 72 69 82 81 67 68 66 62 65 67 67 65 67 63 66 69 71 70 72 60 48 55 58 54 50 56 56 64 66 64 60 56 56 58 58
82 83 76 71 71 75 63 67 72 72 68 74 87 83 67 68 65 69 65 67 70 64 70 66 64 72 76 71 60 46 52 55 58 57 62 67 70 62 66 61 56 58 53 50
83 77 73 72 73 72 66 71 74 69 71 82 90 86 78 68 65 66 71 62 65 74 70 67 62 66 68 72 53 52 57 62 62 64 59 48 60 60 58 52 50 46 42 41
79 73 65 68 68 62 70 78 74 74 67 85 84 87 84 73 78 75 70 66 63 73 70 66 66 62 77 52 51 55 65 60 54 54 53 57 52 49 46 45 42 45 41 44
71 70 67 75 74 85 68 71 73 78 77 79 82 81 84 75 77 78 76 71 70 86 70 75 75 65 50 50 48 50 60 56 57 78 63 60 64 56 41 42 41 47 50 51
78 79 81 77 78 71 67 79 77 62 69 77 79 83 83 74 80 69 73 82 85 88 81 80 76 73 58 60 59 60 60 53 50 41 37 42 45 61 54 49 53 58 62 67
78 80 78 75 71 77 74 80 65 72 62 80 81 79 76 81 76 76 81 83 88 86 78 88 82 68 69 71 65 64 59 55 46 43 46 51 50 55 59 68 77 75 73 77
74 74 84 77 77 77 74 76 74 78 78 88 90 90 79 82 74 81 80 88 86 80 91 81 69 62 65 68 72 66 52 45 49 52 51 54 57 58 60 60 53 52 53 51
92 94 92 85 86 77 79 72 77 77 86 88 82 88 78 74 79 73 84 72 74 97 94 75 71 67 68 64 56 57 61 58 57 74 76 71 70 65 60 58 58 60 60 58
99 95 97 92 76 85 86 92 92 87 82 81 80 83 70 84 85 73 81 90 97 82 72 71 72 74 78 70 59 57 62 69 72 73 78 86 84 72 66 67 72 72 71 71
100 99 92 73 83 88 93 96 91 87 82 78 76 80 85 82 83 93 92 83 75 72 84 76 70 83 76 70 64 56 54 53 60 73 77 83 85 84 83 80 74 68 70 75
100 98 82 78 85 82 77 70 71 76 75 83 80 78 72 83 88 85 78 82 76 79 82 80 79 77 67 58 56 55 55 58 65 76 78 85 88 89 85 83 76 79 77 80

GFSNW_sfc_rhum_090.txt.gz
RH
86 82 79 78 77 78 70 81 98 94 90 98 98 99 83 81 69 52 47 44 43 50 56 57 60 64 64 57 58 67 59 70 88 70 56 55 60 56 48 80 71 69 82 97
86 81 79 76 76 78 70 97 99 88 88 97 98 84 91 85 58 50 46 48 48 49 53 64 58 58 56 57 60 67 63 75 92 80 69 59 60 48 46 47 66 68 84 87
84 80 76 77 77 76 76 84 99 92 93 84 71 86 90 74 59 48 46 49 49 48 53 51 64 58 59 56 57 67 68 62 80 90 82 70 75 57 49 64 88 71 77 75
79 80 82 82 81 84 87 69 86 76 95 71 63 72 73 56 58 50 46 53 48 48 56 52 54 54 49 52 63 64 61 82 83 61 55 63 61 58 56 65 51 72 66 65
82 84 83 82 80 82 82 74 77 76 60 50 58 70 55 56 58 61 51 53 47 48 61 63 55 53 56 59 53 59 54 89 81 88 51 57 62 53 57 60 58 49 52 61
77 79 80 79 78 81 70 67 60 63 63 55 58 65 61 59 59 59 55 58 54 64 68 60 55 55 51 58 60 58 62 82 91 91 61 58 78 56 56 61 60 66 73 66
82 82 82 79 76 76 73 70 69 58 63 58 62 57 55 60 62 63 58 59 58 64 50 50 51 50 51 50 55 50 59 68 85 96 78 86 62 52 56 55 54 60 60 62
83 84 83 81 74 72 68 69 77 66 62 60 57 54 58 58 63 68 68 62 59 56 61 66 60 64 63 54 54 56 53 63 84 92 89 57 58 58 62 68 66 59 62 62
89 89 87 82 72 71 67 75 77 79 65 75 58 58 58 61 66 71 68 61 60 66 64 55 70 70 66 66 57 54 50 55 71 78 84 75 64 57 55 57 75 61 60 62
83 84 87 84 77 70 72 78 74 84 74 73 68 72 70 65 67 72 70 66 68 65 70 63 65 72 62 70 70 71 64 61 72 74 80 64 56 55 57 75 74 61 60 58
83 82 84 83 81 74 72 76 67 82 79 78 67 64 74 72 69 72 73 72 72 76 80 70 66 66 64 69 59 66 62 69 71 65 76 73 56 63 71 62 61 61 63 64
83 80 81 80 78 74 67 74 61 60 80 81 61 61 61 67 72 85 72 70 66 77 84 73 64 64 62 57 58 67 67 60 73 60 65 55 61 66 63 59 61 66 74 67
79 80 78 77 76 70 68 74 76 80 80 80 73 69 60 55 60 63 91 76 74 73 80 86 80 76 66 68 61 68 63 62 70 61 60 60 56 60 62 64 66 65 66 67
76 80 77 74 70 68 68 76 77 78 74 95 83 53 63 58 59 66 66 73 70 73 86 90 86 79 65 67 67 68 62 65 64 62 54 68 58 64 60 62 65 66 65 62
79 81 81 70 70 70 74 79 75 71 83 91 81 66 63 58 60 67 66 71 78 85 91 98 92 82 76 73 78 82 64 67 70 66 56 58 70 64 59 67 69 65 64 64
81 83 84 77 73 72 81 88 79 72 77 96 96 74 70 68 65 69 73 75 75 84 90 89 84 77 87 94 86 51 47 49 54 56 62 65 66 65 69 70 65 60 64 62
81 82 85 79 78 84 83 88 87 74 79 92 96 97 77 72 74 74 76 72 83 85 89 88 84 87 93 94 84 51 47 53 60 61 65 76 72 75 71 66 61 61 63 56
83 82 73 71 73 80 88 82 70 78 83 97 98 97 90 79 83 87 77 85 84 90 91 81 84 86 89 96 74 63 52 60 64 64 63 65 67 69 72 68 60 60 53 46
86 79 68 75 78 81 91 77 82 86 84 98 97 96 97 81 86 85 84 82 90 88 92 86 79 84 92 76 65 60 58 66 68 72 60 61 64 64 62 60 56 54 48 47
77 77 76 87 86 78 79 88 89 94 96 95 97 94 96 90 89 90 91 83 94 97 90 87 92 88 63 64 60 56 61 65 71 78 77 71 74 62 54 56 48 49 57 62
86 85 90 85 71 84 79 95 96 92 92 94 94 93 94 84 96 92 84 95 96 98 94 94 96 92 72 60 59 59 67 66 67 65 69 66 67 76 58 60 65 73 78 86
85 86 78 81 85 94 87 93 87 85 87 84 90 88 88 90 89 93 88 95 95 98 92 96 98 90 78 70 66 68 65 60 50 52 58 59 61 64 68 80 87 89 90 90
79 86 91 93 92 89 90 83 90 92 91 95 95 96 90 90 91 92 94 98 96 87 94 94 86 83 81 83 81 76 66 54 57 64 64 64 63 64 65 68 67 70 71 70
97 94 92 88 96 93 91 92 96 94 95 96 95 96 94 86 95 88 98 81 85 99 100 87 95 82 78 81 77 72 67 72 79 86 83 81 78 70 68 74 78 77 75 69
99 97 94 97 89 95 97 97 94 93 91 94 95 96 87 95 94 85 91 92 98 92 85 93 95 84 80 81 73 70 78 88 89 88 88 92 92 85 78 77 77 76 74 78
100 100 97 91 95 98 97 98 98 95 91 94 95 93 96 94 95 95 94 93 86 85 96 97 85 87 79 74 71 70 71 77 80 88 90 92 94 94 93 90 80 83 82 86
100 99 94 97 96 97 96 92 86 84 93 97 97 96 81 93 97 97 90 90 88 96 97 96 83 88 78 69 62 59 59 61 70 84 89 95 95 94 94 91 92 92 87 92

GFSNW_sfc_rhum_093.txt.gz
RH
83 81 78 78 78 78 81 89 98 89 95 97 99 99 85 82 77 64 54 54 59 63 63 61 66 67 73 72 61 81 76 85 98 77 60 64 70 74 61 82 76 81 85 98
82 82 79 78 78 85 91 96 98 89 94 99 95 85 87 84 74 60 53 58 59 59 64 72 70 72 61 60 67 77 74 83 94 73 62 62 72 59 56 62 73 85 91 93
84 84 83 78 78 80 91 96 98 94 96 95 88 87 92 85 66 56 54 58 57 62 63 61 73 69 64 58 62 68 67 74 83 92 83 75 81 66 63 67 86 87 91 92
77 78 79 76 77 81 95 93 94 86 95 84 87 83 81 72 74 64 51 55 57 60 68 64 65 58 60 62 66 72 70 81 83 71 58 66 66 66 69 77 71 82 79 81
77 80 80 79 80 83 92 92 91 90 92 65 78 76 75 74 71 70 69 74 67 73 83 81 80 68 70 76 62 68 64 86 84 92 56 58 66 59 66 69 69 66 67 76
82 85 83 80 80 83 93 92 82 72 69 72 78 81 72 71 70 68 64 71 70 78 77 74 69 70 61 64 74 67 69 86 93 93 79 69 79 64 65 71 71 74 80 78
86 88 84 80 79 78 92 90 92 81 76 78 74 68 68 74 75 74 71 70 72 70 62 63 62 64 58 59 64 59 68 76 92 95 78 84 65 59 61 63 65 70 69 75
86 86 88 85 78 78 84 90 92 94 80 75 69 68 72 75 76 79 77 74 68 72 75 70 69 73 68 62 59 68 62 74 86 87 94 65 64 62 69 72 75 69 70 74
85 86 86 84 83 78 85 93 94 94 85 84 77 76 70 81 84 82 74 66 70 75 78 69 72 72 74 67 59 58 58 64 79 83 86 76 63 64 60 61 80 67 66 72
84 84 87 84 83 80 81 82 84 94 89 88 86 85 87 81 84 86 80 72 72 75 84 74 73 80 68 76 76 72 69 69 75 82 87 68 62 60 59 77 58 67 66 67
83 83 86 84 84 82 84 80 78 90 93 88 77 74 83 83 86 88 81 75 77 85 86 79 78 75 68 70 64 68 65 72 77 75 80 68 56 67 64 59 70 64 70 72
80 82 81 78 79 79 78 80 74 75 90 85 70 69 68 72 75 88 88 80 82 88 90 89 80 71 73 69 65 70 63 58 69 59 62 54 63 68 68 64 64 66 68 72
78 79 79 75 71 70 77 86 87 91 91 90 86 81 68 63 68 71 88 90 85 86 86 92 90 82 78 76 73 70 70 69 66 62 60 62 60 71 66 65 72 71 72 72
78 76 81 74 72 72 73 83 88 90 89 96 85 62 76 65 66 72 76 79 79 84 92 94 93 89 73 76 68 73 62 68 70 72 62 67 64 66 65 68 71 72 68 66
80 79 82 80 72 70 81 88 86 81 89 94 87 74 71 66 67 73 76 80 87 93 94 98 92 91 82 85 85 91 71 65 72 64 57 58 70 68 67 73 74 72 67 67
83 82 84 84 77 76 87 90 89 85 89 96 92 84 82 78 75 74 81 86 85 92 93 93 93 81 86 93 95 68 65 64 57 57 67 68 69 68 68 71 71 64 63 63
83 83 84 81 76 92 91 86 89 77 88 93 89 96 84 80 81 83 84 82 90 90 93 93 91 89 93 96 80 63 57 54 65 67 70 80 76 76 72 67 65 62 62 58
84 83 81 70 70 79 87 93 76 84 89 96 94 90 90 83 89 90 89 90 92 92 92 91 87 89 92 95 79 65 57 61 71 73 72 71 77 77 76 72 64 57 52 48
88 85 72 83 87 91 93 78 81 94 86 96 97 93 94 85 89 92 89 91 93 90 93 92 86 90 94 75 74 69 66 70 74 73 73 75 79 82 74 62 58 53 50 56
83 83 87 92 91 76 78 89 90 95 97 98 96 98 93 93 94 94 94 92 96 97 91 88 93 89 69 66 69 62 65 70 75 82 80 76 78 70 61 56 54 62 71 72
93 92 92 90 72 90 85 94 93 95 90 96 96 95 95 88 95 94 91 96 97 97 90 94 95 95 82 70 66 66 69 76 74 73 72 66 66 75 60 65 73 73 73 81
91 86 85 89 89 94 76 89 89 88 84 90 92 86 92 92 91 95 90 95 95 96 94 97 97 84 82 77 77 77 78 69 62 65 67 66 64 65 70 78 86 88 90 88
81 89 86 89 88 88 84 80 86 95 93 95 96 93 91 89 93 95 97 98 97 91 99 96 88 87 76 77 83 76 62 58 62 66 67 66 68 66 66 70 74 74 76 71
94 89 87 87 95 93 89 88 87 89 95 96 97 98 95 93 94 93 96 84 89 100 100 88 93 88 78 79 79 70 68 70 76 85 83 78 74 70 74 76 76 76 72 69
97 97 98 96 86 97 97 98 93 95 95 95 96 96 92 97 96 92 92 96 100 93 84 89 96 86 82 83 74 72 77 84 85 85 86 89 90 78 78 75 78 75 74 76
100 99 99 93 96 99 99 98 98 96 94 96 95 96 99 97 95 97 95 95 90 76 93 94 91 85 81 80 75 70 73 73 77 83 84 90 89 85 84 89 80 79 79 82
100 99 96 95 97 95 97 92 93 94 93 94 96 94 77 90 99 100 93 92 85 92 97 98 88 86 83 72 71 70 69 71 73 84 86 91 91 92 91 88 91 92 86 91

GFSNW_sfc_rhum_096.txt.gz
RH
82 80 77 78 82 77 80 94 96 82 93 96 95 99 88 85 82 73 64 61 61 68 72 83 82 84 80 74 75 94 77 89 97 81 65 68 76 77 77 87 77 87 90 98
82 80 77 77 78 81 92 96 98 88 92 97 96 87 85 89 73 65 59 63 62 63 69 75 76 81 68 74 73 84 78 88 95 70 59 63 79 70 67 70 77 92 93 94
82 81 78 78 78 78 87 92 91 90 95 96 94 90 90 82 64 58 58 60 58 62 65 68 79 74 69 67 67 69 68 82 82 91 78 79 82 68 70 72 90 90 93 93
84 84 82 81 82 80 83 92 92 88 96 86 89 88 81 76 76 63 64 66 75 67 77 71 78 70 65 63 68 74 72 83 84 74 70 66 72 65 72 82 83 82 83 88
83 87 84 81 82 83 90 89 85 92 92 77 80 81 79 78 73 73 73 77 72 78 84 81 83 80 78 79 65 76 72 86 86 92 66 65 66 59 67 76 74 73 79 84
85 88 88 82 82 78 94 95 88 76 70 79 82 84 78 75 73 71 69 74 77 78 78 77 75 72 72 74 75 70 74 86 92 81 80 73 78 64 72 79 80 82 81 78
84 86 88 86 82 79 91 94 93 77 76 83 79 73 72 74 78 76 75 75 79 75 69 70 70 74 70 68 63 65 74 79 93 92 79 78 69 65 63 69 73 80 79 82
84 84 86 86 82 74 86 94 91 86 81 85 75 74 76 79 78 81 79 76 70 76 78 68 67 71 68 67 65 69 68 81 87 89 93 64 66 62 67 73 72 71 75 82
85 85 85 83 82 77 87 92 95 94 83 83 77 83 81 85 86 81 77 70 72 74 82 70 73 68 75 68 61 62 64 72 80 89 88 75 58 67 64 61 67 64 70 77
82 84 86 84 84 79 78 82 88 94 88 87 85 85 77 84 87 89 85 77 76 78 88 80 77 81 73 67 77 70 68 75 83 85 92 75 61 64 61 74 39 70 71 76
80 82 84 82 82 82 81 82 83 88 92 88 78 77 84 86 89 86 79 76 76 88 87 83 82 80 72 77 68 70 60 74 79 81 84 73 64 69 61 49 76 68 72 72
80 80 82 78 75 78 74 75 77 82 90 85 76 72 74 79 76 86 88 80 82 88 91 91 91 75 83 74 73 68 75 61 62 63 61 48 65 61 67 64 63 71 73 76
80 78 79 78 72 72 75 88 88 93 92 91 86 80 73 66 73 76 90 92 84 89 87 93 92 88 82 85 79 73 69 71 73 60 57 63 61 73 70 67 71 76 77 75
80 78 78 82 73 71 72 81 89 90 93 96 86 67 76 67 69 74 79 84 80 86 94 94 94 91 78 84 71 74 62 71 71 74 65 65 61 67 68 69 74 75 75 75
81 82 80 84 80 73 85 92 90 86 80 90 85 80 76 71 72 77 82 82 88 95 95 98 95 93 89 91 89 94 73 66 71 58 56 53 58 72 70 75 76 75 69 68
81 84 83 85 85 77 90 91 92 90 91 93 87 86 83 80 79 81 86 90 92 94 95 95 94 86 88 94 95 72 70 66 52 54 62 66 74 74 77 74 77 74 67 66
80 82 84 85 77 92 92 86 87 79 90 91 87 88 86 81 83 88 88 85 91 93 94 97 93 90 93 96 79 64 66 61 62 70 73 80 78 75 75 72 69 65 64 59
80 82 83 78 69 77 83 92 78 86 89 94 92 86 88 84 90 90 93 92 93 93 94 94 92 91 95 98 81 74 71 66 67 72 74 70 78 80 78 74 67 56 51 49
89 88 79 82 88 93 90 77 83 94 83 91 96 88 85 87 91 93 91 93 93 91 96 94 91 92 96 82 78 75 72 72 77 79 84 85 83 84 79 68 56 52 53 60
83 82 86 91 91 75 78 87 90 94 97 98 95 98 95 91 95 95 94 94 96 98 92 92 97 93 79 71 72 74 70 70 76 85 86 82 92 85 69 58 54 55 65 68
90 92 95 87 75 87 86 93 91 93 93 96 96 94 95 90 93 93 92 97 97 100 88 95 95 94 84 78 78 77 83 76 70 71 73 70 72 76 65 70 71 70 69 78
87 87 86 88 88 92 82 90 89 93 89 94 94 89 92 94 92 94 93 93 94 99 94 98 99 84 77 84 80 80 82 71 66 68 70 69 65 63 69 76 81 82 83 85
79 84 85 89 88 92 88 82 91 96 93 97 97 97 93 92 93 96 97 96 96 92 99 98 88 80 81 85 83 77 66 61 64 66 67 66 70 70 67 71 71 72 74 69
91 88 89 91 95 93 87 86 87 85 94 94 95 98 95 94 96 93 96 81 88 99 100 86 91 79 84 85 83 70 73 69 73 83 80 75 72 70 71 72 71 70 67 67
97 95 98 96 84 94 93 96 96 98 91 95 94 97 89 98 95 95 93 97 99 94 84 88 89 83 85 86 85 78 76 87 85 86 86 86 84 78 78 76 78 72 71 73
100 99 100 95 98 97 98 97 95 98 94 97 93 97 99 96 94 98 96 95 93 79 92 91 91 83 83 86 86 81 77 78 76 82 82 87 86 84 82 87 79 76 74 81
100 98 95 97 98 95 94 82 86 93 90 92 96 91 78 92 100 99 92 91 85 88 93 98 89 80 83 86 84 79 76 75 73 76 83 88 91 93 94 90 87 86 84 90

GFSNW_sfc_rhum_102.txt.gz
RH
85 83 79 78 84 81 78 88 90 78 86 92 97 98 98 84 81 78 78 73 70 80 81 88 92 92 82 77 83 89 82 85 91 81 78 75 83 84 84 95 84 90 93 93
88 87 85 80 81 79 86 90 89 81 83 96 97 86 84 87 76 70 68 70 66 72 80 85 88 82 75 80 85 86 86 92 95 60 54 70 81 82 80 84 86 90 96 84
88 87 87 85 79 80 83 86 89 88 94 93 89 90 86 77 69 71 68 76 66 74 79 78 79 80 74 83 81 71 74 88 84 80 60 76 80 78 74 83 95 87 91 83
84 85 88 86 83 82 78 92 92 89 92 84 85 87 86 80 80 74 71 73 79 86 80 78 79 79 71 82 70 84 79 91 91 84 78 78 76 75 76 84 81 84 76 86
83 84 89 88 84 75 91 86 89 93 88 84 81 82 84 83 80 82 78 81 80 84 83 81 83 84 81 80 77 81 83 89 90 93 79 85 82 75 75 70 80 81 84 85
83 85 89 89 84 77 95 97 90 74 77 83 84 86 82 79 84 76 78 81 83 80 77 78 77 76 77 79 83 77 80 90 92 89 78 75 78 77 74 71 79 76 86 75
84 85 87 88 85 78 90 96 87 76 77 88 84 81 76 72 79 81 78 79 82 75 80 82 85 88 88 88 87 84 81 82 93 96 80 72 53 71 69 70 67 77 82 79
83 85 86 82 83 74 88 96 88 81 77 86 81 82 80 80 80 81 78 72 69 80 79 71 62 64 70 76 83 86 82 84 91 94 98 64 59 70 68 71 60 72 80 81
81 83 85 83 79 76 84 94 95 90 85 73 78 81 83 85 87 84 78 77 77 79 80 69 67 55 73 62 62 82 81 82 86 93 93 63 39 73 74 64 65 62 76 82
80 81 83 84 78 78 82 88 90 91 89 84 83 85 83 84 89 90 88 81 82 80 87 77 79 80 73 73 71 69 81 84 94 93 95 81 65 71 68 70 35 76 77 82
79 80 80 83 78 79 82 88 90 88 92 85 83 80 83 89 91 87 78 81 79 91 83 87 85 85 80 85 76 73 65 75 87 92 94 84 69 74 62 49 73 73 77 79
77 80 80 80 79 75 76 85 81 88 93 83 83 80 78 78 78 86 89 83 81 88 92 94 93 87 91 82 76 74 67 59 59 68 66 53 64 64 62 62 63 72 73 72
74 78 79 78 82 72 74 92 91 94 94 91 88 82 80 74 76 79 85 92 87 90 90 93 93 89 90 91 90 81 68 70 70 70 61 62 59 59 70 68 66 70 74 72
72 74 78 79 81 80 70 83 90 90 92 96 81 74 81 79 78 81 83 84 88 90 94 93 94 92 82 89 79 80 63 73 74 81 63 66 55 61 61 66 72 73 78 78
73 73 81 82 80 84 87 93 92 87 77 86 79 77 81 80 80 83 85 85 88 95 96 99 98 94 92 93 94 98 74 66 77 62 50 55 52 58 68 75 73 77 79 81
79 76 82 84 82 81 92 94 93 91 88 93 88 76 86 85 83 85 90 91 92 95 96 96 95 90 90 92 96 78 76 72 61 60 73 62 58 65 72 72 77 81 76 73
78 77 82 84 84 93 88 86 84 85 89 88 88 88 84 84 86 92 93 92 95 95 95 98 96 93 96 98 89 62 72 67 71 76 81 80 77 69 73 77 81 77 74 72
79 76 81 84 76 78 90 90 80 85 88 93 92 87 84 82 91 92 96 96 96 95 96 95 95 90 96 98 72 79 79 79 78 76 81 76 80 82 84 86 80 75 70 62
80 80 81 82 87 94 88 81 83 93 83 92 94 90 82 90 94 95 96 95 97 94 98 96 94 92 98 86 83 82 81 77 74 78 84 84 87 83 87 83 78 74 61 58
83 87 91 99 86 74 83 88 94 95 97 98 95 96 89 90 96 97 96 96 97 98 93 94 96 94 76 73 78 84 82 83 84 94 90 89 92 89 88 84 71 63 56 61
90 92 94 86 78 80 82 94 97 96 97 96 95 89 92 91 91 90 91 96 96 99 94 98 97 96 85 76 77 81 83 86 88 90 83 81 83 90 86 76 64 60 66 74
84 87 84 84 85 90 92 93 90 96 88 94 89 90 90 96 94 94 97 96 96 98 94 99 98 87 74 76 75 78 81 80 81 80 81 76 83 86 80 75 77 82 87 89
90 90 98 93 91 98 98 88 92 95 91 95 96 99 91 98 93 96 95 97 97 92 100 97 89 79 68 75 80 81 78 72 72 71 72 77 84 77 74 76 77 80 83 84
100 99 98 95 97 94 88 84 89 88 93 90 88 96 89 90 98 93 95 87 88 100 100 92 87 74 65 73 81 84 76 71 72 86 87 84 80 71 72 71 77 76 79 76
99 99 96 97 87 96 96 96 96 98 84 90 91 93 83 98 96 95 93 99 100 95 86 87 83 66 66 76 81 87 84 83 86 91 90 89 87 77 73 75 79 77 74 75
100 99 99 95 97 97 100 98 98 96 81 92 93 94 93 88 92 100 92 88 85 80 92 86 72 65 74 79 77 84 85 78 76 87 86 86 88 84 85 87 82 79 76 79
99 99 97 96 98 95 94 90 90 80 83 89 91 89 74 93 98 98 89 87 86 88 89 87 78 65 61 66 71 81 86 81 78 80 84 84 90 93 94 91 92 92 88 90

GFSNW_sfc_rhum_108.txt.gz
RH
83 82 84 82 79 73 59 65 83 69 76 77 81 88 62 73 54 60 59 50 53 54 59 62 63 61 59 51 54 58 62 64 75 57 52 51 54 52 50 53 59 59 61 60
86 84 84 84 79 79 54 69 74 66 71 87 84 67 67 63 60 58 57 56 52 50 56 58 62 59 54 58 56 58 62 67 80 45 50 53 57 54 53 54 60 67 60 38
84 86 88 88 81 78 56 52 86 61 67 68 54 58 63 62 59 58 57 53 52 52 56 56 57 57 59 61 58 70 65 64 64 47 36 42 51 48 55 54 70 45 50 36
81 84 89 87 85 76 57 59 76 69 80 60 61 60 59 60 60 56 55 57 54 51 52 54 54 52 53 65 67 67 63 80 72 63 55 56 59 58 53 65 57 56 37 46
80 84 88 86 85 72 64 56 57 62 58 61 56 64 62 60 60 58 52 54 57 57 52 46 44 50 52 45 62 66 67 82 70 84 48 53 65 55 55 55 53 52 47 47
79 83 88 86 85 68 62 75 62 47 66 60 50 55 61 61 64 58 58 58 55 57 54 54 50 49 53 54 54 58 64 74 81 70 52 53 50 40 45 51 51 50 55 38
78 81 84 85 84 72 62 71 56 44 46 55 51 64 61 59 62 61 57 59 57 50 55 53 56 58 60 59 58 55 62 68 72 85 60 48 31 38 42 46 42 44 42 44
77 81 81 84 80 76 63 71 60 51 37 47 55 62 63 60 60 64 61 55 49 56 53 49 43 36 44 55 67 66 62 61 73 82 66 38 28 45 48 50 37 36 41 38
76 79 81 82 81 80 61 72 77 62 53 42 49 56 60 57 57 58 61 57 56 57 52 49 47 31 32 35 50 66 70 63 72 66 76 42 23 40 44 44 36 30 39 42
74 76 81 81 83 79 68 68 79 65 60 53 56 52 52 59 62 57 62 60 66 61 57 51 45 44 46 40 44 66 74 80 88 75 78 54 37 43 45 43 24 33 48 46
74 74 77 81 81 79 72 73 74 63 62 56 61 58 63 70 63 49 56 58 67 68 65 57 50 55 47 54 44 46 50 61 69 70 80 79 42 53 40 30 34 37 43 45
81 74 75 79 79 81 70 70 69 72 66 58 64 59 58 58 55 54 65 58 59 56 60 61 57 61 60 50 46 48 50 36 33 43 40 34 41 36 38 39 41 42 44 39
87 78 74 75 78 78 73 74 76 73 74 64 68 64 60 64 63 62 57 67 64 69 66 60 61 67 56 54 56 50 44 41 44 46 30 36 31 32 34 34 38 38 40 44
88 82 76 74 79 78 79 80 76 70 70 80 61 61 64 62 64 64 64 67 71 71 73 71 67 67 56 55 49 53 37 49 44 45 39 37 37 36 36 38 41 44 45 48
91 88 81 75 81 80 87 86 80 73 71 76 67 62 62 67 66 68 69 70 71 72 77 86 86 68 69 63 72 68 51 47 52 46 34 34 32 34 42 46 47 46 49 50
93 92 87 79 82 85 81 81 86 80 76 83 88 68 72 72 72 75 75 73 73 74 74 74 71 72 72 77 71 47 47 42 38 37 33 37 37 46 48 50 51 50 56 54
95 93 88 82 85 87 84 75 75 80 76 79 89 86 73 70 73 76 79 81 78 77 79 87 75 75 81 85 66 33 44 46 46 43 48 54 56 50 52 56 53 56 62 61
96 94 87 84 85 85 88 80 81 77 78 85 91 88 72 73 81 81 78 82 84 86 81 83 86 83 84 92 59 50 46 45 51 49 51 49 56 62 59 56 58 66 64 59
97 93 88 92 94 97 81 79 80 79 80 93 88 89 85 77 80 79 83 78 90 76 90 85 83 82 96 67 54 52 57 60 55 60 61 61 64 61 55 60 66 69 66 60
94 93 97 100 92 83 79 86 91 94 91 90 95 78 79 80 82 85 86 82 84 98 79 82 94 86 65 57 55 54 57 58 61 87 79 68 74 68 63 67 66 66 63 59
96 99 99 94 83 83 85 94 97 89 97 89 89 84 76 74 84 75 76 87 87 99 83 91 89 88 67 55 57 52 54 65 63 63 59 59 63 77 71 68 72 72 68 67
93 95 93 93 97 100 99 96 87 94 88 79 86 81 71 79 75 76 86 88 91 97 83 94 94 75 65 63 63 62 60 63 64 62 62 68 69 72 73 77 84 80 79 78
95 96 100 100 99 98 97 96 95 95 82 88 86 88 73 86 82 80 84 99 93 79 94 91 78 67 55 60 70 69 63 60 58 61 66 64 65 66 72 74 69 63 60 57
100 99 98 97 98 93 86 80 84 74 85 84 77 88 79 77 88 78 96 74 80 98 99 85 78 64 56 50 57 58 62 62 63 82 82 78 75 69 69 70 61 59 56 58
100 100 97 97 81 88 86 88 85 86 81 81 81 85 71 87 89 83 87 96 99 89 79 80 78 64 64 58 55 55 59 70 78 76 83 85 82 72 65 65 68 62 57 60
100 100 100 94 95 95 92 92 88 85 80 84 81 86 92 88 87 96 95 85 85 76 88 78 63 60 59 60 55 52 52 53 61 76 77 81 80 76 70 67 66 62 59 64
100 98 89 84 96 91 83 69 66 72 78 91 95 98 92 93 92 92 78 86 80 86 82 73 68 60 50 49 50 53 55 56 60 68 71 77 81 84 79 76 73 74 69 72

GFSNW_sfc_rhum_114.txt.gz
RH
82 82 82 81 80 82 81 78 88 70 66 85 70 91 57 59 52 52 51 49 46 48 52 54 54 52 51 45 52 58 61 64 85 65 52 52 63 64 63 84 64 69 70 74
82 82 83 82 80 78 73 63 63 74 74 95 90 64 59 53 55 54 52 51 50 47 51 58 54 54 48 50 56 70 61 73 90 76 58 56 62 56 58 56 63 79 84 56
80 82 85 86 81 78 80 64 93 68 61 57 53 56 58 60 61 53 48 48 48 52 51 51 56 51 61 52 57 70 67 67 75 78 62 61 66 53 50 59 89 74 60 49
75 80 86 86 83 80 78 64 72 70 88 60 56 58 54 54 58 55 51 53 51 50 53 49 52 49 56 60 69 71 70 84 76 68 58 58 61 58 54 58 61 73 54 53
76 80 87 86 83 81 69 71 65 60 54 52 52 65 57 51 52 54 51 58 48 51 56 48 54 50 49 49 69 75 69 90 78 83 60 58 65 55 52 52 50 50 48 50
79 80 85 87 84 75 67 64 57 58 66 52 52 52 51 52 54 54 48 50 52 51 50 49 47 49 47 49 55 72 70 88 87 90 68 66 77 51 49 46 46 49 58 45
79 79 82 86 84 81 69 70 68 61 55 51 45 51 52 54 54 59 49 54 56 58 48 48 52 58 54 52 50 50 61 74 80 86 80 93 54 38 38 46 40 40 39 38
78 79 78 81 82 79 70 69 77 68 64 42 37 46 52 52 54 60 55 51 52 54 58 63 53 54 57 52 52 55 56 67 84 93 91 62 48 43 49 50 44 37 38 39
81 80 78 80 82 80 73 78 78 75 72 52 38 46 45 57 54 53 59 59 57 67 65 58 71 54 40 63 74 62 62 63 70 80 91 81 46 46 45 50 64 38 37 38
84 79 79 79 81 82 81 82 78 83 78 54 51 52 55 51 59 60 60 64 75 68 73 72 63 64 46 48 54 87 85 72 84 78 80 71 41 47 49 62 41 39 38 41
89 82 78 77 81 82 83 85 76 86 83 71 54 53 58 64 69 58 67 69 75 81 83 71 64 63 49 64 44 69 78 91 90 78 88 88 50 57 49 41 45 39 44 44
92 88 81 76 78 80 82 82 68 67 86 74 62 55 57 59 67 69 59 62 61 64 78 75 67 67 59 57 60 45 50 47 57 63 66 45 47 44 44 44 46 47 48 48
95 92 86 78 74 76 82 89 84 86 89 82 82 72 60 56 59 58 70 61 60 68 81 88 79 82 70 71 62 52 43 37 50 45 39 33 31 40 42 42 44 44 45 48
93 94 90 85 77 77 82 91 84 85 83 97 73 56 68 61 62 66 66 69 69 71 84 89 83 78 58 64 56 59 52 49 49 46 39 34 32 31 30 34 38 42 46 49
91 93 96 90 81 79 86 92 81 83 88 97 88 68 70 66 68 72 72 74 77 85 92 99 95 82 70 63 64 64 50 44 48 47 37 37 39 42 44 45 48 47 52 57
88 92 94 95 86 82 87 85 91 86 81 97 97 79 80 80 80 76 78 80 82 87 89 91 84 79 82 95 91 54 49 44 38 37 37 41 43 51 48 48 50 53 56 57
88 90 93 96 89 92 82 84 88 76 79 90 94 96 82 83 84 88 88 86 90 92 89 92 92 86 88 97 76 39 39 39 42 41 46 48 50 52 54 56 57 60 63 60
87 88 91 94 91 92 92 88 80 77 83 94 96 94 88 80 89 92 82 85 83 93 95 89 92 88 94 97 63 51 48 45 43 39 45 47 56 61 65 64 64 68 71 64
88 94 89 95 97 100 93 81 81 84 86 99 97 97 96 87 88 90 93 75 83 85 98 94 91 93 96 78 66 59 53 57 57 65 60 56 58 64 70 69 70 70 68 69
89 89 95 99 99 86 82 92 98 99 99 99 99 94 98 88 91 93 93 80 86 94 82 87 98 83 63 55 53 51 53 59 59 79 78 79 78 78 74 73 66 68 71 75
96 99 99 96 88 93 98 100 99 98 99 98 96 93 89 80 93 86 83 94 93 96 90 93 93 90 69 58 59 58 58 56 52 65 72 71 73 76 72 71 75 79 80 83
94 95 92 96 99 100 100 99 98 99 89 92 88 89 92 86 84 90 89 96 94 96 92 92 92 84 71 68 63 64 66 64 64 64 73 73 70 70 74 80 87 86 90 92
93 95 100 100 99 100 99 96 99 98 94 95 94 95 88 90 92 94 96 99 94 90 92 93 89 79 56 62 66 68 71 70 72 77 76 71 70 74 79 83 85 82 87 88
97 99 98 98 91 98 93 94 94 93 96 95 94 95 93 84 95 91 98 88 88 98 95 91 91 69 66 62 61 69 66 70 72 84 84 78 75 79 79 81 78 80 82 79
94 100 96 95 89 97 98 99 94 94 91 90 98 98 97 99 99 98 98 98 96 95 89 88 89 75 67 58 58 60 63 68 80 84 87 83 86 84 78 77 80 80 76 70
100 99 95 90 96 96 98 98 98 94 91 94 97 91 94 95 97 98 95 97 94 85 91 91 80 71 63 59 56 53 57 56 60 77 78 83 86 84 82 79 77 80 75 73
100 98 94 91 93 95 96 95 92 81 94 98 99 99 91 97 98 99 96 96 90 87 70 92 84 78 55 46 56 53 56 54 53 58 65 78 87 91 91 83 80 82 78 78

GFSNW_sfc_rhum_120.txt.gz
RH
75 77 80 81 82 78 79 93 77 79 85 86 95 94 72 65 64 64 71 66 63 64 65 70 74 71 68 57 59 74 74 79 92 79 65 69 77 82 84 87 66 89 87 83
83 78 80 82 82 76 92 79 81 86 76 88 96 80 71 67 68 70 64 66 59 60 65 72 69 67 62 60 64 76 73 80 90 56 63 70 81 78 76 73 81 85 88 55
85 82 83 84 82 82 88 80 79 78 79 81 77 77 78 73 68 66 61 64 59 62 69 67 72 68 67 62 66 69 69 83 71 43 39 69 78 72 74 77 96 80 68 50
84 83 83 84 85 85 75 79 79 82 88 70 73 74 66 72 73 68 64 67 64 67 78 70 75 65 78 72 72 79 76 90 90 84 76 77 73 72 68 75 72 82 49 55
81 84 84 84 84 80 84 74 76 81 77 69 72 75 71 63 65 62 66 70 64 65 71 62 71 65 66 65 89 82 85 87 92 96 79 80 84 72 73 70 67 64 60 61
82 85 85 84 85 74 79 90 82 71 74 72 66 70 68 62 60 62 59 62 69 67 60 64 61 60 58 65 84 88 89 95 90 92 79 79 80 59 56 68 72 65 73 53
83 85 85 85 84 82 86 95 94 68 65 67 61 62 61 64 66 65 64 64 71 62 67 61 68 79 76 75 72 79 88 87 92 96 83 71 44 53 49 54 51 57 54 51
85 83 84 84 82 79 85 94 90 78 60 65 55 56 60 69 72 75 65 61 61 70 71 72 61 54 67 78 80 80 75 85 88 94 97 65 54 51 50 53 41 43 46 42
88 85 83 82 81 79 88 94 96 90 68 52 54 54 58 64 75 68 72 73 72 74 73 72 71 53 50 49 80 74 76 73 78 92 98 70 41 51 51 46 46 35 45 42
92 87 84 82 82 79 88 89 90 89 81 71 57 58 53 64 74 70 73 80 80 78 89 80 83 79 57 56 59 84 89 90 85 87 94 78 54 50 50 56 29 41 44 42
91 92 87 83 82 82 84 90 82 77 87 77 70 58 62 68 72 61 56 64 76 86 83 82 79 74 58 66 57 79 81 93 96 89 89 90 53 57 50 41 44 42 43 43
87 91 92 87 80 80 80 85 85 81 82 71 84 73 69 60 58 66 68 67 79 80 84 88 81 76 75 66 64 76 65 56 71 73 70 49 55 49 45 47 42 41 45 43
87 88 90 93 85 78 78 95 95 92 95 86 81 79 76 69 69 66 73 76 72 81 86 90 91 88 84 86 84 70 58 54 64 65 53 49 45 47 51 52 47 46 47 46
88 85 88 91 93 82 83 89 94 89 94 96 80 65 77 71 70 74 76 75 81 87 92 91 92 90 78 82 72 75 59 64 63 54 40 39 38 39 36 39 43 53 54 53
87 86 87 91 93 90 90 96 94 86 84 90 84 83 82 76 75 78 81 80 85 92 88 98 98 95 89 87 91 70 62 62 70 61 46 47 42 43 44 45 46 44 50 51
87 88 87 91 92 92 88 93 95 94 92 96 97 87 85 83 84 84 86 90 91 92 93 94 93 88 84 94 96 72 67 56 49 46 45 51 47 53 52 47 44 46 52 56
87 89 89 88 92 94 94 94 83 86 83 90 96 95 87 86 89 93 94 91 95 94 95 98 95 92 90 95 88 62 64 66 61 56 62 55 52 55 52 58 56 56 62 63
85 87 90 89 93 91 98 96 88 86 86 95 99 95 91 86 93 92 93 89 88 92 94 96 93 91 92 96 77 70 66 67 63 60 60 60 58 60 59 66 69 69 70 72
88 88 80 91 95 100 99 85 84 85 88 100 99 99 93 90 96 95 93 88 94 88 99 96 92 97 98 84 81 75 64 67 61 60 61 63 72 70 70 74 74 78 77 78
90 92 95 96 99 87 86 92 98 99 99 99 99 97 97 89 95 95 96 90 89 98 92 96 98 92 68 60 57 57 58 59 66 86 75 68 76 77 76 75 78 80 81 82
96 95 98 96 89 94 98 99 100 99 100 99 98 96 95 86 93 94 95 98 93 98 91 94 95 97 81 68 68 66 67 70 73 77 77 81 84 87 84 77 75 78 79 81
93 94 93 96 99 100 100 99 99 98 96 97 98 97 93 92 88 98 99 98 98 96 98 99 93 82 75 72 65 63 65 66 62 67 74 79 82 80 80 82 82 82 84 87
92 95 92 99 96 100 99 89 99 100 96 98 97 98 94 91 90 96 98 99 95 93 98 92 84 78 65 66 69 70 59 55 60 61 62 64 67 72 78 73 68 71 72 74
98 94 99 91 98 94 93 95 94 92 97 98 95 98 96 94 98 97 99 90 98 98 99 92 89 76 68 63 67 68 65 64 60 65 68 70 71 67 65 70 66 73 68 71
92 95 98 93 90 97 99 98 96 95 95 96 98 99 98 98 98 92 93 99 96 95 92 90 90 77 78 72 72 75 71 64 58 61 65 66 69 69 65 68 70 74 70 72
99 98 93 77 91 88 94 99 95 94 93 94 96 99 97 96 95 99 92 96 95 86 93 94 89 82 76 64 50 49 52 46 50 59 64 66 69 68 63 75 77 75 73 73
99 96 82 98 98 95 96 95 94 92 91 98 99 97 93 97 99 98 94 97 89 88 84 88 87 83 58 46 48 53 48 47 48 60 62 67 70 79 86 81 66 79 83 82